Regional Weather Roundup
Issued by NWS

Home | Current Version | Previous Version | Graphics & Text | Print | Product List | Glossary On
Versions: 1 2 3 4 5 6 7 8 9 10 11 12 13 14 15 16 17 18 19 20 21 22 23 24 25 26 27 28 29 30 31 32 33 34 35 36 37 38 39 40 41 42 43 44 45 46 47 48 49 50
000
ASUS45 KBOU 241407
RWRCO

WEATHER ROUNDUP FOR COLORADO
NATIONAL WEATHER SERVICE DENVER/BOULDER CO
800 AM MDT SUN MAY 24 2015

NOTE: "FAIR" INDICATES FEW OR NO CLOUDS BELOW 12000 FEET WITH NO
SIGNIFICANT WEATHER AND/OR OBSTRUCTIONS TO VISIBILITY.

COZ001>005-013-030-031-241500-
...NORTHWEST COLORADO...

CITY           SKY/WX    TMP DP  RH WIND       PRES   REMARKS
CRAIG          LGT RAIN  44  38  79 CALM      29.96S
HAYDEN         CLOUDY    41  34  75 E6        29.95F
MEEKER         CLOUDY    41  37  86 N3        29.96F
MOUNT WERNER   NOT AVBL
STEAMBOAT SPGS CLOUDY    40  34  78 E6        29.96F
WALDEN         MOSUNNY   36  32  87 SE6       30.02S
$$

COZ006>008-011-241500-
...WEST CENTRAL VALLEYS...

CITY           SKY/WX    TMP DP  RH WIND       PRES   REMARKS
GRAND JUNCTION PTSUNNY   49  42  77 SE7       29.96S
MONTROSE       PTSUNNY   44  39  82 VRB5      29.99F
EAGLE          MOSUNNY   39  36  87 CALM      30.01F
RIFLE          CLOUDY    46  41  82 CALM      29.97F
DELTA          PTSUNNY   47  43  87 MISG      29.98F
NUCLA          CLOUDY    43  37  81 CALM      30.03F
$$

COZ017>023-064>068-241500-
...SOUTHWEST COLORADO...

CITY           SKY/WX    TMP DP  RH WIND       PRES   REMARKS
DURANGO        CLOUDY    42  40  92 W5        30.00S
CORTEZ         CLOUDY    44  41  89 NE5       30.00S
PAGOSA SPRINGS DRIZZLE   38  38  97 CALM      30.02S
TELLURIDE      PTSUNNY   33  30  88 CALM      30.04F
WOLF CREEK PAS NOT AVBL
$$

COZ009-010-012-014-032>034-037-058>063-241500-
...CENTRAL COLORADO...

CITY           SKY/WX    TMP DP  RH WIND       PRES   REMARKS
ASPEN          PTSUNNY   41  34  76 CALM      29.97F
BUENA VISTA    MOSUNNY   38  31  77 CALM      29.98F
COPPER MTN     PTSUNNY   28  23  80 W3        30.06F HAZE
BERTHOUD PASS  HAZE      19  10  68 NW12      30.07F VSB<1/4 WCI   7
COTTONWOOD PAS MOSUNNY   37  30  75 SE3       30.02S
GUNNISON       PTSUNNY   39  30  70 CALM      30.03F
KREMMLING      CLOUDY    36  32  87 SE6       30.01F
LEADVILLE      MOSUNNY   32  26  78 CALM      30.00F
MONARCH PASS   FOG       25  23  93 MISG      30.16F VSB<1/4
SALIDA         CLOUDY    39  33  81 CALM      30.05S
SUNLIGHT       CLOUDY    32  30  93 CALM        N/A
WILKERSON PASS PTSUNNY   30  28  93 SW5       30.07S WCI  25
$$

COZ069>075-241500-
...SAN LUIS VALLEY/SANGRE DE CRISTO MOUNTAINS...

CITY           SKY/WX    TMP DP  RH WIND       PRES   REMARKS
ALAMOSA        CLOUDY    44  33  65 S9        29.97F
LA VETA PASS   CLOUDY   N/A N/A N/A MISG      30.03F
SAGUACHE       CLOUDY    39  34  81 SE5       30.00F
$$

COZ035-036-038>040-241500-
...NORTHERN COLORADO FRONT RANGE...

CITY           SKY/WX    TMP DP  RH WIND       PRES   REMARKS
DENVER INTL AP MOSUNNY   50  42  74 W6        29.90F
DMNS CITY PARK   N/A     51  39  64 E1        29.90F
AURORA         PTSUNNY   47  43  85 NW5       29.91S
FRONT RANGE AP MOSUNNY   50  45  81 CALM      29.90F
ERIE MUNI ARPT SUNNY     47  42  80 CALM      29.90F
BOULDER MUN AP SUNNY     48  41  76 E3        29.90F
CENTENNIAL     MOSUNNY   47  39  74 W7        29.90F
BROOMFIELD     MOSUNNY   48  39  71 NW3       29.91F
FORT COLLINS   SUNNY     46  45  93 NW5       29.91F
LONGMONT       MOSUNNY   53  44  72 CALM      29.91F
$$

COZ041-046-047-076>085-087-088-241500-
...PIKES PEAK/PALMER DIVIDE AND SOUTHERN FOOTHILLS...

CITY           SKY/WX    TMP DP  RH WIND       PRES   REMARKS
COLO. SPRINGS  PTSUNNY   49  42  77 E3        29.91F
A. F. ACADEMY  MOSUNNY   43  40  90 NW3       29.91F
ELLICOTT       NOT AVBL
FALCON         MOSUNNY   47  41  81 SW5       29.94F
FORT CARSON    MOSUNNY   46  41  85 NW5       29.90F
LIMON          SUNNY     49  46  90 CALM      29.91S
MONUMENT HILL  NOT AVBL
TRINIDAD       MOSUNNY   48  41  76 W9        29.90S
$$

COZ042>045-048>051-090-091-241500-
...NORTHEAST COLORADO...

CITY           SKY/WX    TMP DP  RH WIND       PRES   REMARKS
GREELEY ARPT   SUNNY     48  43  81 CALM      29.90F
AKRON          MOSUNNY   46  45  96 W8        29.89F
BURLINGTON     CLOUDY    55  48  77 CALM      29.89S
WRAY           CLOUDY    54  54  99 CALM      29.89S
STERLING       CLOUDY    50  48  93 W3        29.88F
HOLYOKE        NOT AVBL
FORT MORGAN    CLOUDY    48  46  94 N3        29.89F
$$

COZ086-089-092>099-241500-
...SOUTHEAST COLORADO...

CITY           SKY/WX    TMP DP  RH WIND       PRES   REMARKS
PUEBLO         MOSUNNY   53  48  83 W5        29.88F
LA JUNTA       MOSUNNY   52  49  89 W5        29.87F
LAMAR          PTSUNNY   58  53  84 SW9       29.85S
SPRINGFIELD      N/A     57  52  83 SW3       29.87F
$$



USA.gov is the U.S. government's official web portal to all federal, state and local government web resources and services.